| time (UTC) | temp C | wind direction | speed KPH | gust KPH | rain 1hr cm | rain 24hr cm | rain mn cm | humidity % | barometer mb |
| 20260502212024 | 16 | 0 | 3.2 | 11.3 | 0.00 | 0.00 | 0.00 | 33 | 1019.9 |
| 20260502211536 | 17 | 292 | 3.2 | 11.3 | 0.00 | 0.00 | 0.00 | 33 | 1020.1 |
| 20260502211026 | 17 | 5 | 3.2 | 9.7 | 0.00 | 0.00 | 0.00 | 32 | 1020.2 |
| 20260502210522 | 17 | 355 | 3.2 | 16.1 | 0.00 | 0.00 | 0.00 | 33 | 1020.2 |
| 20260502210038 | 16 | 273 | 3.2 | 16.1 | 0.00 | 0.00 | 0.00 | 33 | 1020.2 |
| 20260502205524 | 16 | 303 | 1.6 | 8.0 | 0.00 | 0.00 | 0.00 | 30 | 1020.3 |
| 20260502205022 | 16 | 13 | 1.6 | 14.5 | 0.00 | 0.00 | 0.00 | 32 | 1020.3 |
| 20260502204539 | 16 | 0 | 4.8 | 14.5 | 0.00 | 0.00 | 0.00 | 30 | 1020.5 |
| 20260502204024 | 16 | 5 | 3.2 | 14.5 | 0.00 | 0.00 | 0.00 | 33 | 1020.6 |
| 20260502203522 | 16 | 302 | 1.6 | 16.1 | 0.00 | 0.00 | 0.00 | 30 | 1020.6 |
| 20260502203034 | 16 | 319 | 3.2 | 16.1 | 0.00 | 0.00 | 0.00 | 35 | 1020.6 |
| 20260502202524 | 16 | 0 | 4.8 | 19.3 | 0.00 | 0.00 | 0.00 | 31 | 1020.7 |
| 20260502202023 | 16 | 0 | 6.4 | 19.3 | 0.00 | 0.00 | 0.00 | 30 | 1020.7 |
| 20260502201545 | 16 | 308 | 3.2 | 12.9 | 0.00 | 0.00 | 0.00 | 33 | 1020.8 |
| 20260502201023 | 17 | 183 | 1.6 | 6.4 | 0.00 | 0.00 | 0.00 | 32 | 1020.8 |
| 20260502200526 | 17 | 117 | 0.0 | 6.4 | 0.00 | 0.00 | 0.00 | 34 | 1020.9 |
| 20260502200035 | 16 | 5 | 1.6 | 12.9 | 0.00 | 0.00 | 0.00 | 36 | 1020.8 |
| 20260502195522 | 16 | 22 | 1.6 | 16.1 | 0.00 | 0.00 | 0.00 | 34 | 1020.9 |
| 20260502195024 | 16 | 16 | 4.8 | 17.7 | 0.00 | 0.00 | 0.00 | 38 | 1020.9 |
| 20260502194535 | 16 | 0 | 4.8 | 17.7 | 0.00 | 0.00 | 0.00 | 36 | 1020.9 |
| 20260502194021 | 16 | 273 | 1.6 | 16.1 | 0.00 | 0.00 | 0.00 | 37 | 1021.0 |
| 20260502193524 | 16 | 300 | 1.6 | 8.0 | 0.00 | 0.00 | 0.00 | 38 | 1021.0 |
| 20260502193037 | 16 | 0 | 1.6 | 8.0 | 0.00 | 0.00 | 0.00 | 34 | 1021.0 |
| 20260502192523 | 16 | 350 | 3.2 | 12.9 | 0.00 | 0.00 | 0.00 | 38 | 1021.0 |
| 20260502192024 | 16 | 321 | 3.2 | 12.9 | 0.00 | 0.00 | 0.00 | 40 | 1021.2 |
| 20260502191546 | 16 | 0 | 1.6 | 11.3 | 0.00 | 0.00 | 0.00 | 37 | 1021.1 |
| 20260502191024 | 15 | 337 | 4.8 | 11.3 | 0.00 | 0.00 | 0.00 | 37 | 1021.2 |
| 20260502190524 | 15 | 342 | 3.2 | 11.3 | 0.00 | 0.00 | 0.00 | 35 | 1021.3 |
| 20260502190039 | 16 | 319 | 3.2 | 9.7 | 0.00 | 0.00 | 0.00 | 37 | 1021.3 |
| 20260502185523 | 16 | 310 | 0.0 | 9.7 | 0.00 | 0.00 | 0.00 | 36 | 1021.4 |
| 20260502185023 | 16 | 151 | 1.6 | 16.1 | 0.00 | 0.00 | 0.00 | 37 | 1021.4 |
| 20260502184545 | 15 | 275 | 3.2 | 16.1 | 0.00 | 0.00 | 0.00 | 38 | 1021.5 |
| 20260502184021 | 16 | 306 | 3.2 | 16.1 | 0.00 | 0.00 | 0.00 | 38 | 1021.5 |
| 20260502183523 | 15 | 0 | 1.6 | 16.1 | 0.00 | 0.00 | 0.00 | 39 | 1021.5 |
| 20260502183052 | 15 | 0 | 4.8 | 17.7 | 0.00 | 0.00 | 0.00 | 35 | 1021.6 |
| 20260502182522 | 15 | 57 | 4.8 | 17.7 | 0.00 | 0.00 | 0.00 | 34 | 1021.6 |
| 20260502182024 | 15 | 0 | 4.8 | 17.7 | 0.00 | 0.00 | 0.00 | 33 | 1021.7 |
| 20260502181542 | 15 | 0 | 1.6 | 8.0 | 0.00 | 0.00 | 0.00 | 37 | 1021.7 |
| 20260502181024 | 15 | 25 | 1.6 | 16.1 | 0.00 | 0.00 | 0.00 | 33 | 1021.8 |
| 20260502180526 | 15 | 340 | 1.6 | 16.1 | 0.00 | 0.00 | 0.00 | 37 | 1021.9 |
| 20260502164024 | 13 | 0 | 3.2 | 11.3 | 0.00 | 0.00 | 0.00 | 39 | 1022.7 |
| 20260502163522 | 13 | 293 | 1.6 | 11.3 | 0.00 | 0.00 | 0.00 | 40 | 1022.6 |
| 20260502163038 | 13 | 24 | 0.0 | 12.9 | 0.00 | 0.00 | 0.00 | 39 | 1022.6 |
| 20260502162524 | 13 | 172 | 3.2 | 19.3 | 0.00 | 0.00 | 0.00 | 38 | 1022.5 |
| 20260502162025 | 13 | 44 | 1.6 | 19.3 | 0.00 | 0.00 | 0.00 | 40 | 1022.6 |
| 20260502161534 | 13 | 355 | 3.2 | 12.9 | 0.00 | 0.00 | 0.00 | 42 | 1022.6 |
| 20260502161022 | 13 | 32 | 1.6 | 12.9 | 0.00 | 0.00 | 0.00 | 43 | 1022.6 |
| 20260502160527 | 13 | 0 | 0.0 | 12.9 | 0.00 | 0.00 | 0.00 | 42 | 1022.5 |
| 20260502152024 | 12 | 0 | 1.6 | 14.5 | 0.00 | 0.00 | 0.00 | 47 | 1022.5 |
| 20260502151538 | 12 | 0 | 3.2 | 14.5 | 0.00 | 0.00 | 0.00 | 48 | 1022.6 |
| 20260502151023 | 12 | 0 | 3.2 | 12.9 | 0.00 | 0.00 | 0.00 | 50 | 1022.7 |
| 20260502150521 | 12 | 16 | 3.2 | 12.9 | 0.00 | 0.00 | 0.00 | 50 | 1022.7 |
| 20260502130523 | 6 | 0 | 0.0 | 3.2 | 0.00 | 0.00 | 0.00 | 67 | 1022.3 |
| 20260502123523 | 5 | 0 | 0.0 | 4.8 | 0.00 | 0.00 | 0.00 | 69 | 1021.9 |
| 20260502123037 | 5 | 0 | 0.0 | 4.8 | 0.00 | 0.00 | 0.00 | 70 | 1021.9 |
| 20260502122524 | 5 | 0 | 0.0 | 3.2 | 0.00 | 0.00 | 0.00 | 71 | 1021.9 |
| 20260502122024 | 5 | 355 | 0.0 | 0.0 | 0.00 | 0.00 | 0.00 | 71 | 1021.8 |
| 20260502121545 | 5 | 0 | 0.0 | 0.0 | 0.00 | 0.00 | 0.00 | 72 | 1021.7 |
| 20260502121024 | 4 | 0 | 0.0 | 0.0 | 0.00 | 0.00 | 0.00 | 72 | 1021.6 |
| 20260502120523 | 4 | 0 | 0.0 | 0.0 | 0.00 | 0.00 | 0.00 | 72 | 1021.6 |
| 20260502115525 | 4 | 0 | 0.0 | 0.0 | 0.00 | 0.00 | 0.00 | 72 | 1021.3 |
| 20260502115024 | 4 | 0 | 0.0 | 0.0 | 0.00 | 0.00 | 0.00 | 72 | 1021.2 |
| 20260502114536 | 4 | 0 | 0.0 | 0.0 | 0.00 | 0.00 | 0.00 | 72 | 1021.1 |
| 20260502114022 | 4 | 0 | 0.0 | 0.0 | 0.00 | 0.00 | 0.00 | 71 | 1021.1 |
| 20260502113523 | 4 | 0 | 0.0 | 0.0 | 0.00 | 0.00 | 0.00 | 71 | 1021.2 |
| 20260502113038 | 4 | 0 | 0.0 | 0.0 | 0.00 | 0.00 | 0.00 | 71 | 1021.1 |
| 20260502112528 | 4 | 0 | 0.0 | 0.0 | 0.00 | 0.00 | 0.00 | 70 | 1021.0 |
| 20260502112025 | 4 | 0 | 0.0 | 0.0 | 0.00 | 0.00 | 0.00 | 69 | 1021.1 |
| 20260502111535 | 4 | 0 | 0.0 | 0.0 | 0.00 | 0.00 | 0.00 | 69 | 1021.0 |
| 20260502111023 | 4 | 0 | 0.0 | 4.8 | 0.00 | 0.00 | 0.00 | 69 | 1021.0 |
| 20260502110526 | 4 | 0 | 0.0 | 4.8 | 0.00 | 0.00 | 0.00 | 69 | 1020.9 |
| 20260502110036 | 4 | 0 | 0.0 | 4.8 | 0.00 | 0.00 | 0.00 | 70 | 1021.0 |
| 20260502105523 | 4 | 0 | 0.0 | 0.0 | 0.00 | 0.00 | 0.00 | 70 | 1021.0 |
| 20260502105023 | 4 | 0 | 0.0 | 0.0 | 0.00 | 0.00 | 0.00 | 70 | 1021.0 |
| 20260502104541 | 4 | 0 | 0.0 | 0.0 | 0.00 | 0.00 | 0.00 | 70 | 1021.0 |
| 20260502104025 | 4 | 0 | 0.0 | 0.0 | 0.00 | 0.00 | 0.00 | 70 | 1021.0 |
| 20260502103524 | 4 | 0 | 0.0 | 0.0 | 0.00 | 0.00 | 0.00 | 70 | 1021.0 |
| 20260502103042 | 4 | 0 | 0.0 | 0.0 | 0.00 | 0.00 | 0.00 | 69 | 1021.0 |
| 20260502102526 | 4 | 0 | 0.0 | 0.0 | 0.00 | 0.00 | 0.00 | 69 | 1020.9 |
| 20260502102026 | 4 | 0 | 0.0 | 0.0 | 0.00 | 0.00 | 0.00 | 68 | 1020.8 |
| 20260502101543 | 5 | 0 | 0.0 | 0.0 | 0.00 | 0.00 | 0.00 | 68 | 1020.7 |
| 20260502101023 | 5 | 0 | 0.0 | 0.0 | 0.00 | 0.00 | 0.00 | 67 | 1020.8 |
| 20260502100525 | 5 | 0 | 0.0 | 0.0 | 0.00 | 0.00 | 0.00 | 67 | 1020.7 |
| 20260502091024 | 6 | 0 | 0.0 | 4.8 | 0.00 | 0.00 | 0.00 | 59 | 1020.5 |
| 20260502090526 | 6 | 0 | 0.0 | 4.8 | 0.00 | 0.00 | 0.00 | 59 | 1020.5 |
| 20260502071025 | 7 | 5 | 1.6 | 8.0 | 0.00 | 0.00 | 0.00 | 53 | 1020.2 |
| 20260502070526 | 8 | 0 | 1.6 | 8.0 | 0.00 | 0.00 | 0.00 | 53 | 1020.2 |
| 20260502070034 | 8 | 0 | 0.0 | 8.0 | 0.00 | 0.00 | 0.00 | 53 | 1020.3 |
| 20260502065525 | 8 | 17 | 0.0 | 8.0 | 0.00 | 0.00 | 0.00 | 53 | 1020.3 |
| 20260502065029 | 8 | 0 | 0.0 | 8.0 | 0.00 | 0.00 | 0.00 | 52 | 1020.4 |
| 20260502064534 | 8 | 13 | 0.0 | 8.0 | 0.00 | 0.00 | 0.00 | 51 | 1020.5 |
| 20260502064025 | 8 | 11 | 1.6 | 8.0 | 0.00 | 0.00 | 0.00 | 51 | 1020.5 |
| 20260502063525 | 8 | 0 | 0.0 | 9.7 | 0.00 | 0.00 | 0.00 | 50 | 1020.4 |
| 20260502063036 | 8 | 355 | 1.6 | 9.7 | 0.00 | 0.00 | 0.00 | 50 | 1020.3 |
| 20260502062525 | 9 | 0 | 3.2 | 12.9 | 0.00 | 0.00 | 0.00 | 49 | 1020.4 |
| 20260502062024 | 9 | 355 | 3.2 | 12.9 | 0.00 | 0.00 | 0.00 | 49 | 1020.4 |
| 20260502061539 | 9 | 29 | 3.2 | 12.9 | 0.00 | 0.00 | 0.00 | 49 | 1020.4 |
| 20260502061023 | 9 | 32 | 4.8 | 12.9 | 0.00 | 0.00 | 0.00 | 49 | 1020.4 |
| 20260502060525 | 9 | 9 | 3.2 | 12.9 | 0.00 | 0.00 | 0.00 | 49 | 1020.4 |
| 20260502060035 | 9 | 24 | 0.0 | 12.9 | 0.00 | 0.00 | 0.00 | 49 | 1020.5 |
| 20260502055525 | 9 | 5 | 3.2 | 12.9 | 0.00 | 0.00 | 0.00 | 49 | 1020.4 |
| 20260502055028 | 9 | 0 | 0.0 | 8.0 | 0.00 | 0.00 | 0.00 | 49 | 1020.5 |
| 20260502054535 | 9 | 25 | 1.6 | 9.7 | 0.00 | 0.00 | 0.00 | 49 | 1020.4 |
| 20260502054023 | 9 | 12 | 3.2 | 9.7 | 0.00 | 0.00 | 0.00 | 49 | 1020.4 |
| 20260502053523 | 10 | 0 | 1.6 | 8.0 | 0.00 | 0.00 | 0.00 | 49 | 1020.4 |
| 20260502053040 | 10 | 0 | 3.2 | 9.7 | 0.00 | 0.00 | 0.00 | 49 | 1020.4 |
| 20260502052523 | 10 | 18 | 1.6 | 12.9 | 0.00 | 0.00 | 0.00 | 49 | 1020.3 |
| 20260502052025 | 10 | 360 | 3.2 | 14.5 | 0.00 | 0.00 | 0.00 | 49 | 1020.4 |
| 20260502051543 | 10 | 34 | 3.2 | 14.5 | 0.00 | 0.00 | 0.00 | 50 | 1020.3 |
| 20260502051024 | 10 | 28 | 3.2 | 14.5 | 0.00 | 0.00 | 0.00 | 50 | 1020.3 |
| 20260502050528 | 10 | 0 | 3.2 | 14.5 | 0.00 | 0.00 | 0.00 | 50 | 1020.2 |
| 20260502050039 | 10 | 37 | 1.6 | 16.1 | 0.00 | 0.00 | 0.00 | 51 | 1020.1 |
| 20260502045524 | 10 | 26 | 3.2 | 16.1 | 0.00 | 0.00 | 0.00 | 51 | 1020.2 |
| 20260502045027 | 10 | 19 | 1.6 | 12.9 | 0.00 | 0.00 | 0.00 | 51 | 1020.1 |
| 20260502044538 | 10 | 17 | 1.6 | 12.9 | 0.00 | 0.00 | 0.00 | 51 | 1020.1 |
| 20260502044026 | 10 | 20 | 3.2 | 12.9 | 0.00 | 0.00 | 0.00 | 51 | 1020.1 |
| 20260502043527 | 10 | 0 | 3.2 | 12.9 | 0.00 | 0.00 | 0.00 | 51 | 1020.0 |
| 20260502043036 | 10 | 28 | 3.2 | 12.9 | 0.00 | 0.00 | 0.00 | 50 | 1020.0 |
| 20260502042523 | 10 | 0 | 1.6 | 12.9 | 0.00 | 0.00 | 0.00 | 50 | 1019.9 |
| 20260502042024 | 10 | 9 | 1.6 | 12.9 | 0.00 | 0.00 | 0.00 | 50 | 1019.9 |
| 20260502041557 | 10 | 355 | 1.6 | 11.3 | 0.00 | 0.00 | 0.00 | 50 | 1019.9 |
| 20260502041023 | 10 | 0 | 1.6 | 12.9 | 0.00 | 0.00 | 0.00 | 51 | 1019.9 |
| 20260502040524 | 10 | 0 | 1.6 | 12.9 | 0.00 | 0.00 | 0.00 | 52 | 1019.8 |
| 20260502040044 | 10 | 0 | 1.6 | 12.9 | 0.00 | 0.00 | 0.00 | 52 | 1019.8 |
| 20260502035524 | 10 | 0 | 1.6 | 12.9 | 0.00 | 0.00 | 0.00 | 52 | 1019.9 |
| 20260502035027 | 11 | 9 | 1.6 | 4.8 | 0.00 | 0.00 | 0.00 | 52 | 1019.9 |
| 20260502034536 | 11 | 0 | 0.0 | 8.0 | 0.00 | 0.00 | 0.00 | 52 | 1019.8 |
| 20260502034025 | 11 | 17 | 0.0 | 8.0 | 0.00 | 0.00 | 0.00 | 52 | 1019.8 |
| 20260502033523 | 11 | 0 | 0.0 | 9.7 | 0.00 | 0.00 | 0.00 | 52 | 1019.7 |
| 20260502033050 | 11 | 0 | 0.0 | 11.3 | 0.00 | 0.00 | 0.00 | 52 | 1019.7 |
| 20260502032527 | 11 | 15 | 3.2 | 11.3 | 0.00 | 0.00 | 0.00 | 51 | 1019.8 |
| 20260502032025 | 11 | 5 | 0.0 | 11.3 | 0.00 | 0.00 | 0.00 | 52 | 1019.6 |
| 20260502031535 | 11 | 346 | 1.6 | 8.0 | 0.00 | 0.00 | 0.00 | 52 | 1019.6 |
| 20260502031024 | 11 | 0 | 1.6 | 6.4 | 0.00 | 0.00 | 0.00 | 52 | 1019.5 |
| 20260502030523 | 11 | 0 | 1.6 | 6.4 | 0.00 | 0.00 | 0.00 | 52 | 1019.4 |
| 20260502030037 | 12 | 0 | 0.0 | 6.4 | 0.00 | 0.00 | 0.00 | 53 | 1019.4 |
| 20260502025532 | 12 | 5 | 0.0 | 4.8 | 0.00 | 0.00 | 0.00 | 52 | 1019.3 |
| 20260502025025 | 12 | 5 | 0.0 | 4.8 | 0.00 | 0.00 | 0.00 | 52 | 1019.2 |
| 20260502024540 | 12 | 0 | 0.0 | 4.8 | 0.00 | 0.00 | 0.00 | 52 | 1019.0 |
| 20260502024025 | 12 | 0 | 0.0 | 4.8 | 0.00 | 0.00 | 0.00 | 51 | 1019.0 |
| 20260502023524 | 12 | 0 | 0.0 | 1.6 | 0.00 | 0.00 | 0.00 | 51 | 1018.8 |
| 20260502023035 | 12 | 0 | 0.0 | 1.6 | 0.00 | 0.00 | 0.00 | 50 | 1018.7 |
| 20260502022526 | 12 | 0 | 0.0 | 3.2 | 0.00 | 0.00 | 0.00 | 50 | 1018.6 |
| 20260502022027 | 12 | 0 | 0.0 | 3.2 | 0.00 | 0.00 | 0.00 | 50 | 1018.5 |
| 20260502021536 | 12 | 0 | 0.0 | 3.2 | 0.00 | 0.00 | 0.00 | 50 | 1018.4 |
| 20260502021026 | 13 | 0 | 0.0 | 3.2 | 0.00 | 0.00 | 0.00 | 49 | 1018.3 |
| 20260502020521 | 13 | 0 | 0.0 | 3.2 | 0.00 | 0.00 | 0.00 | 49 | 1018.2 |
| 20260502020038 | 13 | 0 | 0.0 | 3.2 | 0.00 | 0.00 | 0.00 | 49 | 1018.2 |
| 20260502015524 | 13 | 0 | 0.0 | 3.2 | 0.00 | 0.00 | 0.00 | 49 | 1018.1 |
| 20260502015026 | 13 | 0 | 0.0 | 4.8 | 0.00 | 0.00 | 0.00 | 48 | 1018.1 |
| 20260502014535 | 13 | 0 | 0.0 | 4.8 | 0.00 | 0.00 | 0.00 | 48 | 1018.1 |
| 20260502014023 | 13 | 0 | 0.0 | 4.8 | 0.00 | 0.00 | 0.00 | 48 | 1018.0 |
| 20260502013523 | 13 | 0 | 0.0 | 0.0 | 0.00 | 0.00 | 0.00 | 47 | 1017.9 |
| 20260502013035 | 14 | 0 | 0.0 | 3.2 | 0.00 | 0.00 | 0.00 | 46 | 1017.9 |
| 20260502012523 | 14 | 0 | 0.0 | 6.4 | 0.00 | 0.00 | 0.00 | 46 | 1017.7 |
| 20260502012021 | 14 | 0 | 0.0 | 6.4 | 0.00 | 0.00 | 0.00 | 45 | 1017.7 |
| 20260502011533 | 15 | 0 | 0.0 | 6.4 | 0.00 | 0.00 | 0.00 | 45 | 1017.6 |
| 20260502011021 | 15 | 355 | 0.0 | 4.8 | 0.00 | 0.00 | 0.00 | 44 | 1017.6 |
| 20260502010522 | 15 | 0 | 0.0 | 3.2 | 0.00 | 0.00 | 0.00 | 43 | 1017.6 |
| 20260502010038 | 15 | 0 | 0.0 | 3.2 | 0.00 | 0.00 | 0.00 | 43 | 1017.5 |
| 20260502005524 | 15 | 0 | 0.0 | 3.2 | 0.00 | 0.00 | 0.00 | 42 | 1017.4 |
| 20260502005025 | 16 | 0 | 0.0 | 6.4 | 0.00 | 0.00 | 0.00 | 42 | 1017.3 |
| 20260502004538 | 16 | 0 | 0.0 | 6.4 | 0.00 | 0.00 | 0.00 | 40 | 1017.3 |
| 20260502004027 | 16 | 5 | 1.6 | 6.4 | 0.00 | 0.00 | 0.00 | 40 | 1017.3 |
| 20260502003524 | 16 | 0 | 0.0 | 8.0 | 0.00 | 0.00 | 0.00 | 39 | 1017.2 |
| 20260502003036 | 16 | 283 | 1.6 | 9.7 | 0.00 | 0.00 | 0.00 | 39 | 1017.1 |
| 20260502002528 | 16 | 360 | 1.6 | 12.9 | 0.00 | 0.00 | 0.00 | 38 | 1017.0 |
| 20260502002023 | 17 | 0 | 0.0 | 12.9 | 0.00 | 0.00 | 0.00 | 38 | 1017.0 |
| 20260502001535 | 17 | 14 | 3.2 | 9.7 | 0.00 | 0.00 | 0.00 | 37 | 1016.9 |
| 20260502001025 | 17 | 0 | 1.6 | 17.7 | 0.00 | 0.00 | 0.00 | 38 | 1016.9 |
| 20260502000524 | 17 | 299 | 6.4 | 17.7 | 0.00 | 0.00 | 0.00 | 37 | 1016.9 |
| 20260502000034 | 17 | 352 | 4.8 | 17.7 | 0.00 | 0.00 | 0.00 | 36 | 1016.9 |
| 20260501235524 | 17 | 5 | 3.2 | 12.9 | 0.00 | 0.00 | 0.00 | 36 | 1016.9 |
| 20260501235024 | 17 | 330 | 3.2 | 14.5 | 0.00 | 0.00 | 0.00 | 36 | 1016.9 |
| 20260501234537 | 17 | 0 | 1.6 | 14.5 | 0.00 | 0.00 | 0.00 | 35 | 1016.7 |
| 20260501234022 | 17 | 276 | 3.2 | 14.5 | 0.00 | 0.00 | 0.00 | 35 | 1016.7 |
| 20260501233524 | 17 | 333 | 0.0 | 9.7 | 0.00 | 0.00 | 0.00 | 36 | 1016.9 |
| 20260501233035 | 17 | 315 | 0.0 | 14.5 | 0.00 | 0.00 | 0.00 | 36 | 1016.9 |
| 20260501232523 | 17 | 0 | 3.2 | 14.5 | 0.00 | 0.00 | 0.00 | 36 | 1016.8 |
| 20260501232025 | 17 | 9 | 1.6 | 9.7 | 0.00 | 0.00 | 0.00 | 36 | 1016.9 |
| 20260501231552 | 18 | 309 | 3.2 | 16.1 | 0.00 | 0.00 | 0.00 | 35 | 1016.8 |
| 20260501231023 | 18 | 0 | 3.2 | 16.1 | 0.00 | 0.00 | 0.00 | 36 | 1016.7 |
| 20260501230525 | 18 | 327 | 3.2 | 11.3 | 0.00 | 0.00 | 0.00 | 35 | 1016.7 |
| 20260501230035 | 17 | 0 | 1.6 | 19.3 | 0.00 | 0.00 | 0.00 | 36 | 1016.7 |
| 20260501225524 | 17 | 20 | 4.8 | 19.3 | 0.00 | 0.00 | 0.00 | 37 | 1016.8 |
| 20260501225026 | 17 | 308 | 3.2 | 14.5 | 0.00 | 0.00 | 0.00 | 37 | 1016.8 |
| 20260501224535 | 17 | 331 | 4.8 | 16.1 | 0.00 | 0.00 | 0.00 | 36 | 1016.8 |
| 20260501224023 | 17 | 322 | 4.8 | 17.7 | 0.00 | 0.00 | 0.00 | 37 | 1016.7 |
| 20260501223522 | 17 | 328 | 4.8 | 17.7 | 0.00 | 0.00 | 0.00 | 40 | 1016.8 |
| 20260501223100 | 17 | 0 | 4.8 | 12.9 | 0.00 | 0.00 | 0.00 | 37 | 1016.8 |
| 20260501222522 | 17 | 281 | 1.6 | 12.9 | 0.00 | 0.00 | 0.00 | 37 | 1016.7 |
| 20260501222023 | 17 | 5 | 4.8 | 12.9 | 0.00 | 0.00 | 0.00 | 38 | 1016.7 |
| 20260501221536 | 17 | 24 | 3.2 | 12.9 | 0.00 | 0.00 | 0.00 | 39 | 1016.7 |
| 20260501221023 | 17 | 0 | 1.6 | 12.9 | 0.00 | 0.00 | 0.00 | 38 | 1016.8 |
| 20260501220523 | 17 | 287 | 3.2 | 12.9 | 0.00 | 0.00 | 0.00 | 38 | 1016.7 |
| 20260501220036 | 17 | 313 | 4.8 | 16.1 | 0.00 | 0.00 | 0.00 | 38 | 1016.9 |
| 20260501215521 | 17 | 32 | 3.2 | 17.7 | 0.00 | 0.00 | 0.00 | 38 | 1016.7 |
| 20260501215027 | 17 | 346 | 6.4 | 17.7 | 0.00 | 0.00 | 0.00 | 36 | 1016.9 |
| 20260501214536 | 17 | 302 | 4.8 | 17.7 | 0.00 | 0.00 | 0.00 | 36 | 1017.0 |
| 20260501214023 | 17 | 338 | 4.8 | 16.1 | 0.00 | 0.00 | 0.00 | 37 | 1017.0 |
| 20260501213522 | 17 | 332 | 6.4 | 17.7 | 0.00 | 0.00 | 0.00 | 35 | 1017.1 |
| 20260501213036 | 18 | 319 | 6.4 | 17.7 | 0.00 | 0.00 | 0.00 | 34 | 1017.2 |
| 20260501212522 | 18 | 333 | 8.0 | 17.7 | 0.00 | 0.00 | 0.00 | 37 | 1017.2 |